This is the latest recevied weather packets stored in our database for station/object SALT. If no packets are shown the sender has not sent any weather packets the latest 10 day(s).
| Time | Temp. | Humidity | Pressure | Rain* | Wind** | Luminosity | Snow |
|---|---|---|---|---|---|---|---|
| 1777811221 | 8.89° C | 52% | 1018.9 hPa | 0 mm | - | - | - |
| 1777810620 | 8.89° C | 52% | 1018.9 hPa | 0 mm | - | - | - |
| 1777810017 | 8.33° C | 51% | 1019.1 hPa | 0 mm | - | - | - |
| 1777809415 | 8.89° C | 51% | 1019.2 hPa | 0 mm | - | - | - |
| 1777808812 | 8.89° C | 50% | 1019.3 hPa | 0 mm | - | - | - |
| 1777808209 | 8.89° C | 49% | 1019.4 hPa | 0 mm | - | - | - |
| 1777807604 | 9.44° C | 48% | 1019.4 hPa | 0 mm | - | - | - |
| 1777807002 | 9.44° C | 48% | 1019.5 hPa | 0 mm | - | - | - |
| 1777806399 | 8.89° C | 48% | 1019.6 hPa | 0 mm | - | - | - |
| 1777805796 | 9.44° C | 46% | 1019.5 hPa | 0 mm | - | - | - |
| 1777805194 | 9.44° C | 45% | 1019.5 hPa | 0 mm | - | - | - |
| 1777804591 | 9.44° C | 44% | 1019.5 hPa | 0 mm | - | - | - |
| 1777803986 | 9.44° C | 43% | 1019.5 hPa | 0 mm | - | - | - |
| 1777803383 | 9.44° C | 40% | 1019.5 hPa | 0 mm | - | - | - |
| 1777802780 | 9.44° C | 38% | 1019.5 hPa | 0 mm | - | - | - |
| 1777802179 | 9.44° C | 38% | 1019.6 hPa | 0 mm | - | - | - |
| 1777801575 | 9.44° C | 36% | 1019.6 hPa | 0 mm | - | - | - |
| 1777800973 | 10.56° C | 33% | 1019.6 hPa | 0 mm | - | - | - |
| 1777800368 | 10.56° C | 33% | 1019.5 hPa | 0 mm | - | - | - |
| 1777799765 | 10.56° C | 35% | 1019.5 hPa | 0 mm | - | - | - |
| 1777799162 | 10.56° C | 37% | 1019.4 hPa | 0 mm | - | - | - |
| 1777798560 | 10.56° C | 38% | 1019.5 hPa | 0 mm | - | - | - |
| 1777797957 | 10.56° C | 38% | 1019.5 hPa | 0 mm | - | - | - |
| 1777797355 | 10.56° C | 41% | 1019.5 hPa | 0 mm | - | - | - |
| 1777796750 | 10.56° C | 41% | 1019.6 hPa | 0 mm | - | - | - |
* Rain latest 24 hours (hover to see other rain measurements)
** Current wind speed in m/s (hover to see current wind gust speed)